Weather in Natchez

United States     31°33′38″N   91°24′21″W
temp.,
°C
wind,
m/s
gust,
m/s
humid.,
%
clouds,
%
prec.,
mm/h
press.,
hPa
HPBL,
m
18 may, tue
tue1801:00+20sse51495100 0.2 1014739
04:00+19sse31393100 0.0 1014590
07:00+19se31299100 3.1 1015485
10:00+25sse4777100 0.1 1015750
13:00+26sse4682100 2.4 1015886
16:00+27sse5769100 0.6 10131072
19:00+23ese5108497 0.9 1013787
22:00+21se5139190 1.6 1015866
19 may, wed
wed1901:00+21se51489100 1.8 1015895
04:00+19se4159688 1.1 1014740
07:00+19se4149763 1.9 1016660
10:00+23se51191100 0.8 1017871
13:00+27se6107094 2.1 10161285
16:00+26se61083100 2.4 10151046
19:00+23se6138934 4.0 1016931
22:00+21se5148615 0.0 1017850
20 may, thu
thu2001:00+20se413876 0.0 1017712
04:00+20se3129263 0.0 1017783
07:00+21ese4138849 0.0 1018820
10:00+25ese6127543 0.0 10181114
13:00+27se596792 0.4 10181431
16:00+27se5107644 2.6 10171350
19:00+25se5117353 3.2 10181100
22:00+22se5147842 0.0 1020834
21 may, fri
fri2101:00+20ese31385100 0.0 1020623
04:00+18e3129581 0.0 1020383
07:00+19ese4148716 0.0 1022530
10:00+25se596837 0.0 10231071
13:00+30se575294 0.0 10232069
16:00+29ese585795 0.7 10221852
19:00+25sse49685 0.7 1023588
22:00+20se312805 0.0 1024505
22 may, sat
sat2201:00+17ese249715 0.0 102476
04:00+17e279728 0.0 1024169
07:00+18ese31090100 0.0 1025248
10:00+25ese47615 0.0 1026689
13:00+30ese354689 0.0 10241919
16:00+31e344477 0.0 10222284
19:00+25e2476100 0.0 102178
22:00+24s247499 0.0 102298